Погода в Среднем Ургале

Россия / Хабаровский край     51°09′26″N   132°56′33″E
темп.,
°C
ветер,
м/с
пор.,
м/с
влажн.,
%
обл.,
%
осадки,
мм/ч
давл.,
гПа
погр.,
м
22 апреля, чт
чт2201:00+3всв21700 0.0 102012
04:00+2в11685 0.0 101911
07:00+3в11650 0.0 101910
10:00+13ю253454 0.0 1017473
13:00+20ююз61027100 0.0 10151464
16:00+20ю61229100 0.0 10141798
19:00+17ю5113898 0.0 1014604
22:00+10ююв2862100 0.0 1016155
23 апреля, пт
пт2301:00+9ююв2264100 0.0 101724
04:00+8ююв1169100 0.0 101910
07:00+7вюв1174100 0.0 102014
10:00+8с2371100 0.9 1022426
13:00+8ююв1175100 1.2 1022422
16:00+7св1270100 1.5 1022260
19:00+6сз6934100 0.0 1024879
22:00+3з2553100 0.1 1023138
24 апреля, сб
сб2401:00+1ссз4116696 0.0 1024580
04:00−2ссз310611 0.0 1025397
07:00−2сз28600 0.0 1026342
10:00+3сз473227 0.0 10241607
13:00+6сз5928100 0.0 10202823
16:00+6зсз61030100 0.0 10182930
19:00+4сз4134366 0.2 10182340
22:000сз41064100 0.3 1018701
25 апреля, вс
вс2501:00−1сз4105199 0.1 1018536
04:00−4ссз211660 0.1 1019263
07:00−3ссз29580 0.0 1021359
10:00+3ссз46240 0.0 10202226
13:00+6сз581923 0.0 10182659
16:00+7ссз58165 0.0 10172692
19:00+6ссз48235 0.0 10182569
22:000всв11385 0.0 102010
26 апреля, пн
пн2601:00−2вюв114541 0.0 102110
04:00−3юв114951 0.0 102110
07:00−1вюв1144100 0.0 102139
10:00+5ююз2330100 0.0 1019569
13:00+9юз2328100 0.0 10161229
16:00+10ю2430100 0.0 10141656
19:00+9юв3738100 0.0 1014441
22:00+7ююв51241100 0.0 1013567